TIANWANG 1A (TW-1A) (40928 NORAD) Tracking and Keplerian Element Data

This shows tracking and keplerian element data for the satellite.

Feedback or suggestion? Click here.




ElementValue
Catalog40928
NameTIANWANG 1A (TW-1A)
Epoch Orbit40279
Epoch Day325.14999784
Epoch Year2022
RAAN348.1676
Inclination97.0164
Eccentricity0.0006944
Argument of Perigee129.7181
Mean Anonmoly304.9691
Mean Motion15.84769949
Decay Rate0.0019343
L11 40928U 15051D 22325.14999784 .00193430 00000+0 82125-3 0 9990
L22 40928 97.0164 348.1676 0006944 129.7181 304.9691 15.84769949402795



Live tracking and technical data element details for TIANWANG 1A (TW-1A) (NORAD 40928). TIANWANG 1A (TW-1A) can be tracked NOW for your location showing map with azimuth and elevation plus other details from your city location.







IsCatalogInMostPopularTable: catalog: 40928, numindb: 526
Update: records affected: 1



GetName: 40928 TIANWANG 1A (TW-1A)

Hit Count: updated at: Mon, 28 Nov 2022 04:40:22 GMT